Namest Nad Oslav, Czech Republic

12:34 PM CET on December 16, 2019 (GMT +0100)
Namest

Weather History for LKNA - August, 2019

Change the Weather History Date:

Saturday, August 10, 2019

  Actual Average (WUND) Record (WUND)
Temperature  
Mean Temperature 72 °F -  
Max Temperature 82 °F - - (-1)
Min Temperature 62 °F - - (-1)
Cooling Degree Days 7    
Growing Degree Days 22 (Base 50)    
Moisture  
Dew Point 61 °F    
Average Humidity 74    
Maximum Humidity 99    
Minimum Humidity 50    
Precipitation  
Precipitation 0.12 in - - ()
Sea Level Pressure  
Sea Level Pressure 30.01 in    
Wind  
Wind Speed 7 mph ()    
Max Wind Speed 16 mph    
Max Gust Speed -    
Visibility 8.4 miles    
Events Rain    
Averages and records for this station are not official NWS values.
T = Trace of Precipitation, MM = Missing Value Source: Averaged Metar Reports

Daily Weather History Graph

Daily Weather History Graph

Search for Another Location

Airport or City:

Astronomy

Aug. 10, 2019 Rise Set
Actual Time 5:39 AM CEST 8:21 PM CEST
Civil Twilight 5:03 AM CEST 8:57 PM CEST
Nautical Twilight 4:17 AM CEST 9:43 PM CEST
Astronomical Twilight 3:22 AM CEST 10:37 PM CEST
Moon 4:56 PM CEST (8/10) 12:57 AM CEST (8/10)
Length of Visible Light 15h 53m
Length of Day
14h 41m
Waxing Gibbous, 77% of the Moon is Illuminated
Aug 10
Waxing Gibbous
Aug 15
Full
Aug 23
Last Quarter
Aug 30
New
Sep 6
First Quarter

Hourly Weather History & Observations

Time (CEST) Temp. Heat Index Dew Point Humidity Pressure Visibility Wind Dir Wind Speed Gust Speed Precip Events Conditions
12:00 AM 71.6 °F - 57.2 °F 60% 29.95 in - East 6.9 mph - N/A   Clear
1:00 AM 70 °F - 56 °F 50% 29.89 in 19 mi East 6.7 mph - -   Clear
1:00 AM 71.6 °F - 55.4 °F 57% 29.92 in - ESE 5.8 mph - N/A   Clear
2:00 AM 70 °F - 55 °F 50% 29.88 in 19 mi East 4.5 mph - -   Clear
2:00 AM 69.8 °F - 55.4 °F 60% 29.92 in - East 3.5 mph - N/A   Clear
3:00 AM 69 °F - 57 °F 56% 29.89 in 19 mi East 4.5 mph - -   Partly Cloudy
3:00 AM 69.8 °F - 57.2 °F 64% 29.92 in - East 4.6 mph - N/A   Clear
4:00 AM 68.0 °F - 57.2 °F 68% 29.95 in - NE 3.5 mph - N/A   Clear
5:00 AM 66.2 °F - 59.0 °F 78% 29.95 in - NNW 8.1 mph - N/A   Clear
6:00 AM 66.2 °F - 59.0 °F 78% 29.95 in - Variable 2.3 mph - N/A   Clear
7:00 AM 68 °F - 60 °F 68% 29.90 in 16 mi East 4.5 mph - -   Mostly Cloudy
7:00 AM 68.0 °F - 60.8 °F 78% 29.95 in - Variable 1.2 mph - N/A   Clear
8:00 AM 71.6 °F - 62.6 °F 73% 29.98 in - Variable 2.3 mph - N/A   Clear
9:00 AM 73 °F - 64 °F 67% 29.92 in 25 mi SSW 4.5 mph - -   Partly Cloudy
9:00 AM 73.4 °F - 64.4 °F 73% 29.98 in - South 3.5 mph - N/A   Clear
10:00 AM 75.2 °F - 64.4 °F 69% 29.98 in - SSW 4.6 mph - N/A   Clear
11:00 AM 78.8 °F - 64.4 °F 61% 30.01 in 6.2 mi SSW 3.5 mph - N/A   Mostly Cloudy
11:02 AM 78.8 °F - 64.4 °F 61% 30.01 in 6.2 mi Variable 2.3 mph - N/A Rain Light Rain Showers
11:13 AM 78.8 °F - 62.6 °F 57% 30.01 in 6.2 mi SW 3.5 mph - N/A   Mostly Cloudy
11:22 AM 78.8 °F - 62.6 °F 57% 30.01 in 6.2 mi WSW 4.6 mph - N/A Rain Light Rain Showers
11:33 AM 77.0 °F - 64.4 °F 65% 30.01 in 6.2 mi West 4.6 mph - N/A   Mostly Cloudy
12:00 PM 78.8 °F - 64.4 °F 61% 30.01 in - West 6.9 mph - N/A   Clear
2:00 PM 82.4 °F 83.4 °F 62.6 °F 51% 30.01 in 6.2 mi NW 12.7 mph - N/A   Mostly Cloudy
3:00 PM 80.6 °F 82.3 °F 64.4 °F 58% 30.01 in 6.2 mi NW 10.4 mph - N/A   Mostly Cloudy
4:00 PM 78 °F - 64 °F 53% 29.94 in 19 mi NNW 13.4 mph - -   Partly Cloudy
4:00 PM 78.8 °F - 64.4 °F 61% 30.01 in 6.2 mi NNW 13.8 mph - N/A   Mostly Cloudy
5:00 PM 76 °F - 63 °F 56% 29.96 in 19 mi NNW 15.7 mph - -   Partly Cloudy
5:00 PM 77.0 °F - 64.4 °F 65% 30.01 in - NNW 13.8 mph - N/A   Clear
5:02 PM 77.0 °F - 62.6 °F 61% 30.04 in 6.2 mi NNW 15.0 mph - N/A Rain Light Rain Showers
5:05 PM 75.2 °F - 64.4 °F 69% 30.04 in 6.2 mi NNW 16.1 mph - N/A Rain Light Rain
5:13 PM 73.4 °F - 66.2 °F 78% 30.04 in 3.7 mi NW 15.0 mph - N/A Rain Rain
5:22 PM 71.6 °F - 66.2 °F 83% 30.04 in 5.0 mi NNW 12.7 mph - N/A Rain Light Rain
5:30 PM 71.6 °F - 66.2 °F 83% 30.04 in 6.2 mi NNW 11.5 mph - N/A   Mostly Cloudy
6:00 PM 71 °F - 64 °F 73% 30.00 in 12 mi NW 13.4 mph - - Rain Light Rain
6:00 PM 71.6 °F - 66.2 °F 83% 30.04 in 6.2 mi NW 12.7 mph - N/A   Mostly Cloudy
7:00 PM 65 °F - 60 °F 77% 30.03 in 12 mi NW 13.4 mph - -   Mostly Cloudy
7:00 PM 66.2 °F - 59.0 °F 78% 30.06 in 6.2 mi NNW 11.5 mph - N/A   Mostly Cloudy
7:13 PM 64.4 °F - 59.0 °F 83% 30.06 in 5.0 mi NNW 12.7 mph - N/A Rain Light Rain Showers
7:21 PM 62.6 °F - 59.0 °F 88% 30.06 in 6.2 mi NW 15.0 mph - N/A   Mostly Cloudy
7:34 PM 62.6 °F - 59.0 °F 88% 30.06 in 6.2 mi NW 12.7 mph - N/A Rain Light Rain
7:38 PM 62.6 °F - 59.0 °F 88% 30.06 in 3.7 mi NW 12.7 mph - N/A Rain Rain
7:50 PM 62.6 °F - 60.8 °F 94% 30.06 in 3.7 mi NW 11.5 mph - N/A Rain Rain
8:00 PM 62 °F - 62 °F 99% 30.05 in 4 mi NW 13.4 mph - - Rain Light Rain
8:06 PM 62.6 °F - 60.8 °F 94% 30.06 in 6.2 mi NW 11.5 mph - N/A   Mostly Cloudy
8:35 PM 62.6 °F - 60.8 °F 94% 30.06 in 6.2 mi NW 12.7 mph - N/A Rain Light Rain Showers
9:00 PM 62.6 °F - 60.8 °F 94% 30.09 in 6.2 mi NW 12.7 mph - N/A   Unknown
9:05 PM 62.6 °F - 60.8 °F 94% 30.09 in - NW 10.4 mph - N/A   Clear
9:43 PM 62.6 °F - 60.8 °F 94% 30.09 in 6.2 mi West 8.1 mph - N/A Rain Light Rain Showers
10:00 PM 62 °F - 62 °F 99% 30.08 in 6 mi WNW 8.9 mph - - Rain Light Rain Showers
10:00 PM 62.6 °F - 60.8 °F 94% 30.09 in 6.2 mi WNW 9.2 mph - N/A Rain Light Rain Showers
11:00 PM 62 °F - 62 °F 99% 30.08 in 12 mi West 4.5 mph - - Rain Light Rain Showers
11:00 PM 62.6 °F - 60.8 °F 94% 30.09 in - West 4.6 mph - N/A   Clear